COMETS

导读 | 星芒AI

COMETS(Comet Interceptor)是欧洲空间局(ESA)的一项任务,旨在研究一颗原始彗星。该任务计划于2029年发射,目标是拦截一颗来自奥尔特云、首次进入内太阳系的彗星。COMETS将由主探测器和两个子探测器组成,对彗星的结构、组成和活动进行详细观测。该任务将提供关于太阳系早期历史和生命起源的重要信息,是首次专门针对“原始”彗星的探测任务。

基本信息
目录编号:
25175
目录名称:
COMETS
国际标识:
1998-011A
轨道中心:
EARTH
卫星名称:
COMETS
卫星全名:
--
卫星状态:
在轨 (已飞行10116 天)
发射日期:
1998-02-21 UTC
国别 :
日本 (JP)
星等 :
--
轨道信息
数据来源 国际轨道数据 AOE轨道数据
星历时间 2025-11-02T08:19:44+0800
23小时前
查看轨道信息
2025-11-02T09:00:00+0800
22小时前
查看轨道信息
半长轴 15756.94km 15756.937km
偏心率 0.5289829 0.5289618
轨道倾角 30.191° 30.196°
近地点辐角 166.886° 166.921°
升交点赤经 358.341° 358.319°
平近点角 215.461° 259.637°
近地点 1043.653km 1043.984km
远地点 17713.957km 17713.62km
周期 328.071分钟 328.071分钟
每日圈数 4.389297 4.389298
详细信息
使用方式:
暂无
2D轨道图
3D轨道图
轨道高度分析图
轨道倾角分析图
轨道综合分析图
查看轨道综合分析图